TimeMST,TemperatureF,Dew PointF,Humidity,Sea Level PressureIn,VisibilityMPH,Wind Direction,Wind SpeedMPH,Gust SpeedMPH,PrecipitationIn,Events,Conditions,WindDirDegrees,DateUTC
12:04 AM,21.2,19.4,93,30.14,4.0,WSW,5.8,-,0.00,Snow,Light Snow,250,2012-12-30 07:04:00
12:53 AM,21.9,19.0,89,30.24,5.0,West,6.9,-,0.00,Snow,Light Snow,260,2012-12-30 07:53:00
1:53 AM,23.0,19.0,85,30.24,9.0,WSW,6.9,-,0.01,,Overcast,250,2012-12-30 08:53:00
2:50 AM,23.0,19.4,86,30.17,10.0,WSW,8.1,-,N/A,,Overcast,250,2012-12-30 09:50:00
2:53 AM,23.0,19.0,85,30.25,10.0,West,9.2,-,N/A,,Overcast,260,2012-12-30 09:53:00
3:19 AM,21.2,19.4,93,30.18,10.0,WSW,8.1,-,N/A,,Overcast,250,2012-12-30 10:19:00
3:53 AM,21.9,18.0,85,30.27,10.0,West,5.8,-,N/A,,Overcast,270,2012-12-30 10:53:00
4:53 AM,21.0,17.1,85,30.28,10.0,West,5.8,-,N/A,,Overcast,270,2012-12-30 11:53:00
5:22 AM,21.2,17.6,86,30.19,10.0,West,4.6,-,N/A,,Overcast,260,2012-12-30 12:22:00
5:53 AM,21.0,17.1,85,30.28,10.0,West,5.8,-,N/A,,Overcast,270,2012-12-30 12:53:00
6:28 AM,19.4,17.6,93,30.20,2.0,North,3.5,-,N/A,,Overcast,350,2012-12-30 13:28:00
6:37 AM,19.4,17.6,93,30.21,1.5,NNW,3.5,-,N/A,,Overcast,330,2012-12-30 13:37:00
6:43 AM,19.4,17.6,93,30.20,2.5,Calm,Calm,-,N/A,,Overcast,0,2012-12-30 13:43:00
6:53 AM,19.9,18.0,92,30.30,4.0,Calm,Calm,-,N/A,,Overcast,0,2012-12-30 13:53:00
7:53 AM,19.0,16.0,88,30.32,5.0,NE,3.5,-,N/A,,Mostly Cloudy,50,2012-12-30 14:53:00
8:05 AM,19.4,15.8,86,30.22,3.0,ENE,3.5,-,N/A,,Mostly Cloudy,60,2012-12-30 15:05:00
8:11 AM,19.4,17.6,93,30.22,2.0,NE,3.5,-,N/A,,Mostly Cloudy,50,2012-12-30 15:11:00
8:18 AM,19.4,17.6,93,30.23,1.2,Calm,Calm,-,N/A,,Overcast,0,2012-12-30 15:18:00
8:34 AM,19.4,17.6,93,30.23,0.8,Calm,Calm,-,N/A,,Overcast,0,2012-12-30 15:34:00
8:53 AM,19.9,18.0,92,30.33,0.2,Calm,Calm,-,N/A,Fog,Light Freezing Fog,0,2012-12-30 15:53:00
9:42 AM,19.4,17.6,93,30.25,1.2,WNW,3.5,-,N/A,,Overcast,300,2012-12-30 16:42:00
9:53 AM,19.9,17.1,89,30.35,1.8,Calm,Calm,-,N/A,,Overcast,0,2012-12-30 16:53:00
10:40 AM,21.2,17.6,86,30.28,0.8,Calm,Calm,-,N/A,,Overcast,0,2012-12-30 17:40:00
10:53 AM,21.0,17.1,85,30.37,1.0,Calm,Calm,-,N/A,,Overcast,0,2012-12-30 17:53:00
11:03 AM,21.2,17.6,86,30.28,1.2,Calm,Calm,-,N/A,,Haze,0,2012-12-30 18:03:00
11:08 AM,21.2,17.6,86,30.28,0.8,Calm,Calm,-,N/A,,Haze,0,2012-12-30 18:08:00
11:32 AM,21.2,17.6,86,30.28,1.0,Calm,Calm,-,N/A,,Overcast,0,2012-12-30 18:32:00
11:39 AM,21.2,17.6,86,30.28,1.8,Calm,Calm,-,N/A,,Overcast,0,2012-12-30 18:39:00
11:41 AM,21.2,17.6,86,30.28,2.5,Calm,Calm,-,N/A,,Overcast,0,2012-12-30 18:41:00
11:49 AM,21.2,17.6,86,30.28,3.0,Calm,Calm,-,N/A,,Overcast,0,2012-12-30 18:49:00
11:53 AM,21.9,19.0,89,30.38,3.0,Calm,Calm,-,N/A,,Overcast,0,2012-12-30 18:53:00
12:53 PM,21.9,19.0,89,30.37,5.0,NNW,4.6,-,N/A,,Mostly Cloudy,340,2012-12-30 19:53:00
1:53 PM,24.1,19.9,84,30.35,4.0,NE,3.5,-,N/A,,Overcast,40,2012-12-30 20:53:00
2:40 PM,24.8,19.4,80,30.26,5.0,Calm,Calm,-,N/A,,Haze,0,2012-12-30 21:40:00
2:53 PM,25.0,19.9,81,30.35,6.0,Calm,Calm,-,N/A,,Haze,0,2012-12-30 21:53:00
3:05 PM,24.8,19.4,80,30.27,6.0,Calm,Calm,-,N/A,,Haze,0,2012-12-30 22:05:00
3:53 PM,24.1,19.0,81,30.36,6.0,NNE,3.5,-,N/A,,Haze,20,2012-12-30 22:53:00
4:30 PM,23.0,19.4,86,30.28,6.0,North,4.6,-,N/A,,Mostly Cloudy,350,2012-12-30 23:30:00
4:53 PM,21.9,19.0,89,30.38,5.0,Calm,Calm,-,N/A,,Overcast,0,2012-12-30 23:53:00
5:40 PM,21.2,17.6,86,30.29,4.0,NNW,5.8,-,N/A,,Overcast,340,2012-12-31 00:40:00
5:53 PM,19.9,18.0,92,30.39,4.0,NNW,6.9,-,N/A,,Overcast,330,2012-12-31 00:53:00
6:07 PM,19.4,17.6,93,30.29,2.0,NNW,5.8,-,N/A,,Overcast,330,2012-12-31 01:07:00
6:17 PM,19.4,17.6,93,30.29,1.5,NW,5.8,-,N/A,,Overcast,320,2012-12-31 01:17:00
6:29 PM,19.4,17.6,93,30.29,0.8,NW,4.6,-,N/A,,Overcast,320,2012-12-31 01:29:00
6:53 PM,19.0,17.1,92,30.40,0.8,NW,4.6,-,N/A,,Mist,320,2012-12-31 01:53:00
7:53 PM,19.9,16.0,85,30.40,0.8,Calm,Calm,-,N/A,,Mist,0,2012-12-31 02:53:00
8:53 PM,19.0,15.1,85,30.41,0.5,Calm,Calm,-,N/A,Fog,Light Freezing Fog,0,2012-12-31 03:53:00
9:53 PM,16.0,12.0,84,30.43,0.2,WNW,5.8,-,N/A,Fog,Light Freezing Fog,290,2012-12-31 04:53:00
10:53 PM,17.1,12.0,81,30.44,1.2,Calm,Calm,-,N/A,,Haze,0,2012-12-31 05:53:00
10:57 PM,17.6,12.2,79,30.33,2.5,Calm,Calm,-,N/A,,Haze,0,2012-12-31 05:57:00
11:05 PM,15.8,10.4,79,30.33,1.8,Calm,Calm,-,N/A,,Haze,0,2012-12-31 06:05:00
11:12 PM,15.8,10.4,79,30.33,0.8,Calm,Calm,-,N/A,,Haze,0,2012-12-31 06:12:00
11:18 PM,15.8,10.4,79,30.33,1.2,Calm,Calm,-,N/A,,Haze,0,2012-12-31 06:18:00
11:24 PM,17.6,12.2,79,30.33,0.8,Calm,Calm,-,N/A,,Haze,0,2012-12-31 06:24:00
11:53 PM,17.1,10.9,77,30.43,0.5,Calm,Calm,-,N/A,,Haze,0,2012-12-31 06:53:00